SBBQSBRP

Guest
Details From SBBQ - MAJOR BRIGADEIRO DOORGAL BORGES
To SBRP - LEITE LOPES
Flight Number -
Tags generated
Created
Modified
Stats Distance 240 nm / 444 km
Max Altitude 30,400 ft / 9,266 m
Waypoints 4
Social Downloads 0
Likes 0
Share VATSIM

Download

Looking for another format? Having issues loading an existing format? Contact us
Advertisement - Login to hide

Notes

Basic altitude profile: - Ascent Rate: 2500ft/min - Ascent Speed: 250kts - Cruise Altitude: 35000ft - Cruise Speed: 420kts - Descent Rate: 1500ft/min - Descent Speed: 250kts Options: - Use NATs: yes - Use PACOTS: yes - Use low airways: yes - Use high airways: no

Route

SBBQ VGH W57 PCL SBRP

ID Type Via Altitude Latitude Longitude Leg Dist Tot Dist Heading (true) Name
O SBBQ APT - 0 ft / 0 m -21.26717˚ -43.76104˚ - 0 nm - MAJOR BRIGADEIRO DOORGAL BORGES
VGH NDB - 30,400 ft / 9,266 m -21.58817˚ -45.47433˚ 97 nm 97 nm 258° / 259° VARGINHA NDB
PCL NDB W57 (AWY-LO) 16,000 ft / 4,877 m -21.83583˚ -46.56567˚ 62 nm 160 nm 256° / 256° POCOS NDB
O SBRP APT - 0 ft / 0 m -21.13417˚ -47.77419˚ 79 nm 239 nm 302° / 302° LEITE LOPES

Altitude Profile

Advertisement - Login to hide

Weather


0- 5 10 15 20 25 30 35+ Temperature / ° C

Clouds and Precipitation
Forecast for 2018-05-24 18:00 UTC. Updated 5 hours ago

Ground ~20,000 ft ~40,000 ft Winds

SBBQ

Details ICAO SBBQ
Name MAJOR BRIGADEIRO DOORGAL BORGES
Region Brazil
Timezone America/Sao_Paulo (UTC-3.0)
Stats Elevation 3,657 ft / 1,115 m (AMSL)
Location -21.267166° -43.761041°
Runways 1
Magnetic Variation 22.796° W

METAR

SBBQ 242100Z 10003KT 9999 FEW025 15/12 Q1027

Decode

TAF

Not found

Departure Runways

ID Width Length Bearing (true) Bearing (mag) Surface Threshold Offset Overrun Length
18 98 ft / 30 m 5,810 ft / 1,771 m 162.30° 185.10° Asphalt 0 ft / 0 m 0 ft / 0 m
36 98 ft / 30 m 5,810 ft / 1,771 m 342.30° 5.10° Asphalt 0 ft / 0 m 0 ft / 0 m

SBRP

Details ICAO SBRP (RAO)
Name LEITE LOPES
Region Brazil
Timezone America/Sao_Paulo (UTC-3.0)
Stats Elevation 1,802 ft / 549 m (AMSL)
Location -21.134166° -47.774189°
Runways 1
Magnetic Variation 21.257° W

METAR

SBRP 242200Z 14005KT CAVOK 23/10 Q1020

Decode

TAF

TAF SBRP 241601Z 2418/2518 15003KT CAVOK TX28/2418Z TN12/2509Z BECMG 2421/2423 11003KT BECMG 2424/2501 10002KT BECMG 2502/2504 12004KT BECMG 2510/2512 12008KT BECMG 2515/2517 15004KT RMK PGM

Decode

Destination Runways

ID Width Length Bearing (true) Bearing (mag) Surface Threshold Offset Overrun Length
18 115 ft / 35 m 6,918 ft / 2,109 m 163.40° 184.66° Asphalt 657 ft / 200 m 0 ft / 0 m
36 115 ft / 35 m 6,918 ft / 2,109 m 343.40° 4.66° Asphalt 328 ft / 100 m 0 ft / 0 m

Popular Alternatives